Home   Weather   Port Hedland   Past weeks

Flag for Australia Past Weather in Port Hedland, Western Australia, Australia — Yesterday and Last 2 Weeks

Now
90 °F

Sunny.


Feels Like: 96 °F
Forecast: 79 / 88 °F
Wind: 22 mph from Northwest

Location: Port Hedland Pardoo

Current Time: Dec 3, 2016 at 12:40:30 pm

Latest Report: Dec 3, 2016 at 12:00 pm


Visibility: N/A

Pressure: 29.74 "Hg

Humidity: 55%

Dew Point: 72 °F

Location of Port HedlandLocation

Past Weather in Port Hedland — Graph

°F

Port Hedland Temperature Yesterday

Maximum temperature yesterday: 93 °F (at 9:00 am)
Minimum temperature yesterday: 81 °F (at 4:00 am)
Average temperature yesterday: 87 °F

High & Low Weather Summary for the Past Weeks

 TemperatureHumidityPressure
High108 °F (Nov 21, 12:00 pm)100% (Nov 24, 5:00 am)29.86 "Hg (Nov 24, 5:00 am)
Low68 °F (Nov 25, 4:30 am)7% (Nov 21, 10:00 am)29.59 "Hg (Nov 21, 3:00 pm)
Average87 °F57%29.73 "Hg
* Reported Nov 18 11:00 am — Dec 3 11:00 am, Port Hedland, Weather by CustomWeather, © 2016

Note: Actual official high and low records may vary slightly from our data, if they occured in-between our weather recording intervals... More about our weather records

Advertising

Port Hedland Weather History for the Previous 24 Hours

Scroll right to see more
 ConditionsComfort  
Time TempWeatherWind HumidityBarometerVisibility
11:00 am
Sat, Dec 3
88 °FSunny.20 mph59%29.74 "HgN/A
10:30 am88 °FSunny.18 mph59%29.74 "HgN/A
10:00 am88 °FSunny.17 mph59%29.77 "HgN/A
9:00 am88 °FSunny.15 mph62%29.77 "HgN/A
8:30 am88 °FSunny.13 mph59%29.77 "HgN/A
8:00 am86 °FSunny.13 mph62%29.77 "HgN/A
7:30 am86 °FSunny.12 mph62%29.74 "HgN/A
7:00 am84 °FSunny.12 mph70%29.74 "HgN/A
6:30 am81 °FSunny.9 mph79%29.74 "HgN/A
6:00 am79 °FSunny.10 mph84%29.71 "HgN/A
5:30 am79 °FSunny.10 mph89%29.71 "HgN/A
5:00 am79 °FClear.12 mph89%29.68 "HgN/A
4:30 am79 °FClear.9 mph84%29.68 "HgN/A
4:00 am79 °FClear.14 mph84%29.68 "HgN/A
3:30 am79 °FClear.13 mph84%29.68 "HgN/A
3:00 am79 °FClear.13 mph84%29.68 "HgN/A
2:30 am79 °FClear.13 mph84%29.68 "HgN/A
2:00 am79 °FClear.13 mph84%29.68 "HgN/A
1:00 am79 °FClear.10 mph84%29.71 "HgN/A
12:00 am79 °FClear.10 mph84%29.71 "HgN/A
11:00 pm
Fri, Dec 2
81 °FClear.10 mph79%29.71 "HgN/A
10:00 pm81 °FClear.9 mph79%29.74 "HgN/A
9:00 pm81 °FClear.13 mph79%29.71 "HgN/A
8:30 pm82 °FClear.14 mph79%29.71 "HgN/A
8:00 pm82 °FClear.16 mph74%29.68 "HgN/A
7:30 pm82 °FClear.17 mph79%29.68 "HgN/A
7:00 pm82 °FClear.18 mph79%29.68 "HgN/A
6:00 pm84 °FSunny.22 mph70%29.65 "HgN/A
5:00 pm88 °FSunny.22 mph66%29.65 "HgN/A
4:30 pm88 °FSunny.22 mph66%29.65 "HgN/A
4:00 pm88 °FSunny.21 mph66%29.65 "HgN/A
3:30 pm91 °FSunny.21 mph59%29.65 "HgN/A
3:00 pm91 °FSunny.23 mph56%29.65 "HgN/A
2:30 pm90 °FSunny.23 mph63%29.65 "HgN/A
2:00 pm91 °FSunny.22 mph52%29.65 "HgN/A
1:30 pm93 °FSunny.22 mph53%29.68 "HgN/A
1:00 pm91 °FPassing clouds.22 mph56%29.68 "HgN/A
12:30 pm91 °FPassing clouds.22 mph56%29.68 "HgN/A
12:00 pm91 °FSunny.22 mph59%29.68 "Hg10 mi
Weather by CustomWeather, © 2016

See weather overviewHow to use our weather pages